Starlink 36093

operational
NORAD ID: 67015 Int'l Des: 2025-293 Owner: SPXS Country: US Constellation: starlink
LEOCIRCULAR

About Starlink 36093

Description loading...

Live Position

Loading 3D Globe...

Upcoming Passes

Altitude History

Altitude vs Time

uPlot chart will show altitude changes over time

Two-Line Element Set

1 67015C 25293N 25346.10673611 -.00203870 00000+0 -28016-3 0 3462
2 67015 69.9972 325.9181 0004672 267.9790 215.6313 16.06095082 10
Epoch: Dec 12, 2025 • Age: 50 hours

Current Status

Altitude 267.3 km
Velocity 7.75 km/s
Sub-Earth Point -24.21°S, 159.06°W
Launch Date Dec 10, 2025
Age 3 days
Type internet

Technical Details

Classification Payload
Mass 575.00 kg
Dry Mass 530.00 kg
Total Mass 575.00 kg
Length 0.30 m
Diameter 4.10 m
Span 29.00 m
Shape Box + pan
Manufacturer SPXS
Bus Type Starlink V2MO
Phase Status In Orbit
Owner/State SPXS/US

Large Constellations

Loading constellations...